Location: ??????
(56.0120°N, 39.1740°E)
Time: 02:19:39
(UTC+00:00)

ASTEX 1 - Pass Details

Date: 14 April 2026
Orbit: 712 x 734 km, 92.7° (Epoch: 20 May)

Event Time Altitude Azimuth Distance (km) Brightness Sun altitude
Exits shadow 18:21:35 16° 169° (S) 1,852 5.0 -14.4°
Maximum altitude 18:25:35 85° 82° (E) 737 3.3 -14.8°
Drops below altitude 10° 18:30:33 10° 355° (N) 2,240 6.7 -15.2°
Sets 18:32:51 0° 355° (N) 3,170 7.5 -15.5°
